Showing default

HAWK-8A, 59443

Orbit data source: Space-Track

HAWK-8A, 59443 is a payload satellite owned by HawkEye 360 (US) in LEO that was launched on Sun, 07 Apr 2024 UTC via an FALCON 9 launch vehicle from the Air Force Eastern Test Range (AFETR). Payload-class satellites include a variety of spacecraft equipped with specific instruments for various scientific and technological missions. These include communications satellites like Starlink; space stations such as the ISS; scientific satellites like the Hubble; Earth observation satellites from companies like Planet Labs, Umbra, and HawkEye 360; GPS; miniature CubeSats for education and research; and military/defense satellites.

Loading next visibility...
Identifier
59443, 2024-066B
Orbit
LEO
Country
Flag of USUS
Related business
Manufacturer
UTIAS-SFL
Mission
Operational spacecraft
Bus & Motor
HAWK2G, Unknown motor
Mass
31 kg wet, 30 kg dry
Launch date (UTC)
2024-04-07 (1 year ago)
Launch vehicle
FALCON 9
Launch site
Air Force Eastern Test Range (AFETR)
Object type
Payload
Rocket body
Debris
Shape & HBR
Unknown
Radar Cross Section
Medium (>0.1 m² and <1 m²)

Expand to show TLE details & history
Last TLE update: 20 hours ago

TLE from 20 hours ago
0 HAWK-8A
1 59443U 24066B   25247.50443984  .00004169  00000-0  37141-3 0  9999
2 59443  45.5948 312.1417 0004833 314.1601  45.8881 14.97521039 76980
Epoch: 2025-09-04T12:06Z
TLE epoch observation values (Epoch: 2025-09-04T12:06:23.602Z)
Latitude
-0.00006°
Longitude
146.67728°
Altitude
572.285 km
Speed
7.578 km/s
True Right ascension
20h 48m 33s
True Declination
0° 00' 00"
Sunlit
Object was in full shadow at epoch
Visualization orbit readout
Latitude
Unknown
Longitude
Unknown
Altitude
Unknown
Speed
Unknown
Apparent Right ascension
Unknown
Apparent Declination
Unknown
Sunlit
N/A
Visualization observer readout
Local Sidereal Time
23:36:31
Azimuth
Unknown
Elevation
Unknown
Doppler factor
Unknown
Orbital elements
Apogee altitude
579.409 km
Perigee altitude
572.687 km
Semi-major axis
6,954.185 km
Eccentricity
0.00048
Inclination
45.5948°
RAAN
312.1417°
Arg. of periapsis
314.1601°
True anomaly
45.92788°
Mean anomaly
45.8881°
Eccentric anomaly
45.90799°
Mean motion
3.7426 °/min
Orbital period
96.19 mins
BSTAR
0.00037141
Loading maneuver chart data...
Computing Atmospheric mass density...
Loading historical data...
Loading historical data...
Loading historical data...
Loading historical data...
Loading historical data...
Loading historical data...
Loading historical data...

Documentation

Showing up to 5 results
|